Regional Weather Roundup
Issued by NWS Jackson, KY

Home | Current Version | Previous Version | Text Only | Print | Product List | Glossary On
Versions: 1 2 3 4 5 6 7 8 9 10 11 12 13 14 15 16 17 18 19 20 21 22 23 24 25 26 27 28 29 30 31 32 33 34 35 36 37 38 39 40 41 42 43 44 45 46 47 48 49 50
416
ASUS43 KJKL 091610
RWRJKL

EAST KENTUCKY HOURLY WEATHER ROUNDUP
NATIONAL WEATHER SERVICE JACKSON KY
1100 AM EST FRI DEC 09 2016

NOTE: "FAIR" INDICATES FEW OR NO CLOUDS BELOW 12,000 FEET WITH
NO SIGNIFICANT WEATHER AND/OR OBSTRUCTIONS TO VISIBILITY.

* THESE REPORTS ARE NOT UNDER NWS QUALITY CONTROL AND MAY NOT
  REPORT WEATHER SUCH AS PRECIPITATION AND FOG.

KYZ079-080-083-085-087-088-110-112-115-119-120-091700
...EASTERN KENTUCKY...

CITY           SKY/WX    TMP DP  RH WIND       PRES   REMARKS
JACKSON        CLOUDY    23  14  68 VRB3      30.52S
LONDON         CLOUDY    24  12  60 MISG      30.54S
SOMERSET*      CLOUDY    25  14  63 CALM      30.59F
MONTICELLO*    CLOUDY    26  17  68 W5        30.59S WCI  20
MIDDLESBORO*   CLOUDY    26  13  60 NW6       30.55S WCI  19
HARLAN APT*    CLOUDY    25  14  63 SW6       30.51S WCI  18
PIKE CO APT*   CLOUDY    23  13  65 W5        30.51S WCI  17
BIG SANDY APT* FLURRIES  24  14  67 W8        30.53R WCI  15
MOREHEAD APT*  FLURRIES  23  12  63 NW9       30.58R WCI  13
ASHLAND*       CLOUDY    27  18  69 NW5       30.55S WCI  21
$$

KYZ035-036-041-042-044-050-067-078-099-091700
...CENTRAL KENTUCKY...

CITY           SKY/WX    TMP DP  RH WIND       PRES   REMARKS
MT STERLING*   LGT SNOW  23  18  80 NW7       30.58S WCI  15
FLEMING/MASON* FLURRIES  22  12  65 NW9       30.57S WCI  12
DANVILLE*      CLOUDY    23  12  63 W5        30.58F WCI  17
LEXINGTON      CLOUDY    23  12  62 W5        30.57S WCI  17
FRANKFORT      CLOUDY    23  10  57 NW6       30.58S WCI  16
LOUISVILLE     FLURRIES  25  11  55 NW6       30.61S WCI  18
LEBANON*       CLOUDY    25  14  63 CALM      30.59F
GLASGOW*       CLOUDY    26  16  65 CALM      30.60F
BOWLING GREEN  PTSUNNY   28  14  55 NW7       30.63S WCI  21
$$

KYZ091>093-OHZ055-061-077-WVZ005-015-034-035-042-091700
...SOUTHERN OHIO/WEST VIRGINIA...

CITY           SKY/WX    TMP DP  RH WIND       PRES   REMARKS
COVINGTON      LGT SNOW  22  14  71 W12       30.55R WCI  10
COLUMBUS       PTSUNNY   28  18  66 W12       30.49R WCI  18
DAYTON         PTSUNNY   24  16  71 W15       30.50R WCI  11
WILMINGTON     CLOUDY    22  14  71 W12       30.51R WCI  10
HUNTINGTON     LGT SNOW  24  17  74 W7        30.54R WCI  16
CHARLESTON     FLURRIES  27  13  55 W7        30.51R WCI  19
PINEVILLE*       N/A     24  11  56 MISG      30.51R
BECKLEY        CLOUDY    21  11  65 NW12      30.38R WCI   9
BLUEFIELD      LGT SNOW  16   9  74 NW10      30.37R WCI   4
LOGAN CO APT*  CLOUDY    23  12  63 CALM      30.47R
$$

VAZ002-007-008-TNZ017-027-036-066-071-091700
...SOUTHWEST VIRGINIA/EAST TENNESSEE...

CITY           SKY/WX    TMP DP  RH WIND       PRES   REMARKS
WISE*          LGT SNOW  21  14  73 NW3       30.42R
ABINGDON*      FLURRIES  25  13  62 N9        30.44S WCI  15
BRISTOL        CLOUDY    27  13  55 W9        30.49R WCI  18
MORRISTOWN*    CLOUDY    27  14  59 NW7       30.51S WCI  19
SEVIERVILLE*   CLOUDY    27  14  59 CALM      30.53S
KNOXVILLE      PTSUNNY   29  15  56 NE8       30.54R WCI  21
OAK RIDGE      PTSUNNY   30  13  49 VRB5      30.56S WCI  25
CROSSVILLE     SUNNY     23  14  68 VRB7      30.50S WCI  15
NASHVILLE      MOSUNNY   30  15  53 NE5       30.63R WCI  25
$$

...KEY TO REMARKS...
VSB - VISIBILITY IN MILES
WCI - WIND CHILL INDEX
HX  - HEAT INDEX

$$




USA.gov is the U.S. government's official web portal to all federal, state and local government web resources and services.